Location: Grasslands National Park East Block
(49.0708°N, 106.5295°W)
Time: 23:41:31
(UTC-06:00)

Vanguard 1 - Pass Details

Date: 22 September 2019
Orbit: 653 x 3830 km, 34.2° (Epoch: 20 October)

Event Time Altitude Azimuth Distance (km) Brightness Sun altitude
Rises 23:18:17 0° 179° (S) 7,157 - -36.4°
Reaches altitude 10° 23:25:55 10° 162° (SSE) 6,582 - -37.0°
Maximum altitude 23:37:27 17° 130° (SE) 6,311 - -37.9°
Exits shadow 23:47:16 12° 103° (ESE) 6,683 14.0 -38.6°
Drops below altitude 10° 23:49:13 10° 99° (E) 6,817 14.1 -38.7°
Sets 23:57:09 0° 83° (E) 7,531 14.5 -39.1°
